Regional Weather Roundup
Issued by NWS

Home | Current Version | Previous Version | Graphics & Text | Print | Product List | Glossary On
Versions: 1 2 3 4 5 6 7 8 9 10 11 12 13 14 15 16 17 18 19 20 21 22 23 24 25 26 27 28 29 30 31 32 33 34 35 36 37 38 39 40 41 42 43 44 45 46 47 48 49 50
000
ASUS43 KFSD 201710
RWRSD

WEATHER ROUNDUP FOR SOUTH DAKOTA
NATIONAL WEATHER SERVICE SIOUX FALLS SD
1100 AM CST SAT DEC 20 2014

NOTE: "FAIR" INDICATES FEW OR NO CLOUDS BELOW 12,000 FEET WITH NO
SIGNIFICANT WEATHER AND/OR OBSTRUCTIONS TO VISIBILITY.


SDZ001>005-009-010-012>017-201800-
NORTHWEST AND NORTH CENTRAL SOUTH DAKOTA

CITY           SKY/WX    TMP DP  RH WIND       PRES   REMARKS
BUFFALO          N/A     42  29  59 W9        29.83S
FAITH            N/A     33  27  78 SW7       29.90R WCI  27
MOBRIDGE       CLOUDY    26  22  84 SE9       29.91R WCI  17
$$

SDZ012>016-024>037-041>051-057-063-072>074-201800-
SOUTHWEST AND SOUTH CENTRAL SOUTH DAKOTA

CITY           SKY/WX    TMP DP  RH WIND       PRES   REMARKS
RAPID CTY ARPT CLOUDY    42  25  50 CALM      29.92R
PIERRE         PTSUNNY   23  19  85 E6        29.96S FOG     WCI  16
CUSTER         CLOUDY    35  23  61 CALM      29.92R
ELLSWORTH AFB  CLOUDY    42  26  53 W5        29.92R
PHILIP         CLOUDY    30  25  81 W7        29.94S WCI  23
PINE RIDGE     CLOUDY    37  26  64 W9        29.96R
SPEARFISH      FAIR      41  27  56 W6        29.94R
WINNER         FAIR      32  22  66 S9        29.96S WCI  24
$$

SDZ004>011-016>023-039-040-201800-
NORTHEAST SOUTH DAKOTA

CITY           SKY/WX    TMP DP  RH WIND       PRES   REMARKS
ABERDEEN       FOG       26  24  92 S12       30.01S VSB 1/2 WCI  16
WATERTOWN      CLOUDY    29  27  92 S15       30.01S FOG     WCI  18
SISSETON         N/A     29  27  92 SW12      30.02F WCI  19
$$

SDZ017-020-022-023-036>040-048>070-201800-
SOUTHEAST SOUTH DAKOTA

CITY           SKY/WX    TMP DP  RH WIND       PRES   REMARKS
SIOUX FALLS    CLOUDY    32  29  88 S9        30.06F WCI  24
HURON          FOG       26  26 100 S9        30.03S VSB 3/4 WCI  17
CHAMBERLAIN    MOSUNNY   20  19  94 SE5       29.98F WCI  14
MITCHELL       FOG       28  27  96 S14       30.05F VSB 1/4 WCI  17
YANKTON        CLOUDY    32  28  86 S12       30.09R WCI  23
$$

ABBREVIATIONS USED IN REMARKS
   TC - TEMPERATURE IN CELSIUS
  WCI - WIND CHILL INDEX
   HX - HEAT INDEX
  VSB - VISIBILITY




USA.gov is the U.S. government's official web portal to all federal, state and local government web resources and services.